Location: Newark
(45.8378°N, 5.5389°E)
Time: 11:51:46
(UTC+00:00)

YUBILEINY - Pass Details

Date: 23 December 2019
Orbit: 1478 x 1509 km, 82.5° (Epoch: 18 January)

Event Time Altitude Azimuth Distance (km) Brightness Sun altitude
Rises 21:37:25 0° 237° (WSW) 4,603 ? -57.1°
Enters shadow 21:39:28 - 244° (WSW) 4,046 ? -57.4°
Exits shadow 21:55:08 - 354° (N) 3,844 ? -59.6°
Sets 21:58:01 0° 5° (N) 4,610 ? -60.0°
